CW2621 Weather Reports


time (UTC)temp
C
wind
direction
speed
KPH
gust
KPH
rain 1hr
cm
rain 24hr
cm
rain mn
cm
humidity
%
barometer
mb
20260502164052 11 219 1.6 6.4 0.00 0.10 0.10 78 1013.0
20260502163551 11 5 4.8 6.4 0.00 0.10 0.10 78 1013.0
20260502163051 11 128 4.8 8.0 0.00 0.10 0.10 77 1013.0
20260502162613 11 0 0.0 8.0 0.00 0.10 0.10 76 1013.0
20260502162052 11 221 1.6 6.4 0.00 0.10 0.10 78 1013.0
20260502161551 11 0 0.0 6.4 0.00 0.10 0.10 79 1013.1
20260502161051 11 241 1.6 6.4 0.00 0.10 0.10 78 1013.2
20260502160551 11 248 0.0 6.4 0.00 0.10 0.10 78 1013.2
20260502152052 11 206 1.6 4.8 0.00 0.10 0.10 78 1013.6
20260502151552 11 165 0.0 4.8 0.00 0.10 0.10 77 1013.7
20260502151052 11 0 0.0 3.2 0.00 0.10 0.10 78 1013.7
20260502150551 11 155 1.6 3.2 0.00 0.10 0.10 77 1013.8
20260502150113 11 0 0.0 4.8 0.00 0.10 0.10 77 1013.7
20260502130552 10 248 1.6 3.2 0.03 0.10 0.10 82 1013.6
20260502123551 8 233 0.0 1.6 0.05 0.10 0.10 90 1013.7
20260502123051 8 0 0.0 3.2 0.05 0.10 0.10 90 1013.6
20260502122551 8 0 0.0 3.2 0.05 0.10 0.10 90 1014.0
20260502122051 8 245 1.6 4.8 0.05 0.10 0.10 91 1014.1
20260502121552 8 248 1.6 4.8 0.05 0.10 0.10 91 1014.2
20260502121052 7 250 3.2 4.8 0.05 0.10 0.10 91 1014.2
20260502120612 7 238 1.6 4.8 0.03 0.08 0.08 91 1014.2
20260502115613 7 224 1.6 1.6 0.03 0.08 0.08 91 1014.4
20260502115052 7 224 0.0 1.6 0.03 0.08 0.08 91 1014.3
20260502114552 7 0 0.0 3.2 0.03 0.08 0.08 91 1014.3
20260502114113 7 0 0.0 3.2 0.00 0.05 0.05 91 1014.3
20260502113552 7 182 0.0 1.6 0.00 0.05 0.05 91 1014.2
20260502113051 7 0 0.0 1.6 0.00 0.05 0.05 91 1014.2
20260502112551 7 0 0.0 1.6 0.00 0.05 0.05 91 1014.5
20260502112112 7 0 0.0 1.6 0.00 0.05 0.05 91 1014.6
20260502111552 7 182 0.0 1.6 0.00 0.05 0.05 91 1014.2
20260502111052 7 182 0.0 1.6 0.00 0.05 0.05 91 1014.2
20260502110551 7 0 0.0 1.6 0.03 0.05 0.05 91 1014.4
20260502110051 7 0 0.0 1.6 0.03 0.05 0.05 91 1014.3
20260502105551 7 0 0.0 1.6 0.03 0.05 0.05 91 1014.4
20260502105112 7 186 0.0 1.6 0.03 0.05 0.05 90 1014.1
20260502104552 7 0 0.0 0.0 0.05 0.05 0.05 90 1013.8
20260502104051 7 0 0.0 0.0 0.05 0.05 0.05 90 1013.7
20260502103552 7 0 0.0 0.0 0.05 0.05 0.05 90 1013.5
20260502103113 7 0 0.0 1.6 0.05 0.05 0.05 90 1013.5
20260502102552 7 0 0.0 1.6 0.05 0.05 0.05 90 1013.6
20260502102051 7 0 0.0 1.6 0.05 0.05 0.05 89 1013.5
20260502101552 7 0 0.0 1.6 0.05 0.05 0.05 89 1013.4
20260502101052 7 0 0.0 1.6 0.05 0.05 0.05 89 1013.6
20260502100552 7 0 0.0 1.6 0.03 0.03 0.03 89 1013.6
20260502091051 8 0 0.0 1.6 0.00 0.00 0.00 86 1013.3
20260502090551 8 0 0.0 1.6 0.00 0.00 0.00 85 1013.2
20260502071051 8 0 0.0 1.6 0.00 0.00 0.00 78 1013.3
20260502070613 8 0 0.0 1.6 0.00 0.00 0.00 78 1013.5
20260502070052 8 0 0.0 1.6 0.00 0.00 0.00 78 1013.5
20260502065551 8 0 0.0 1.6 0.00 0.00 0.00 78 1013.6
20260502065052 8 0 0.0 1.6 0.00 0.00 0.00 77 1013.5
20260502064552 8 0 0.0 1.6 0.00 0.00 0.00 78 1013.4
20260502064051 9 0 0.0 1.6 0.00 0.00 0.00 76 1013.5
20260502063551 9 0 0.0 0.0 0.00 0.00 0.00 76 1013.5
20260502063051 9 0 0.0 0.0 0.00 0.00 0.00 75 1013.5
20260502062612 9 0 0.0 0.0 0.00 0.00 0.00 75 1013.5
20260502062051 9 0 0.0 1.6 0.00 0.00 0.00 74 1013.6
20260502061051 9 252 0.0 3.2 0.00 0.00 0.00 74 1013.7
20260502060552 9 252 1.6 3.2 0.00 0.00 0.00 74 1013.6
20260502060051 9 0 0.0 3.2 0.00 0.00 0.00 73 1013.6
20260502055552 9 254 3.2 3.2 0.00 0.00 0.00 73 1013.5
20260502055051 9 0 0.0 3.2 0.00 0.00 0.00 74 1013.6
20260502054552 10 262 1.6 1.6 0.00 0.00 0.00 73 1013.5
20260502054051 10 0 0.0 1.6 0.00 0.00 0.00 73 1013.5
20260502053552 10 200 1.6 3.2 0.00 0.00 0.00 72 1013.5
20260502053112 10 200 1.6 3.2 0.00 0.00 0.00 71 1013.6
20260502052552 10 182 1.6 1.6 0.00 0.00 0.00 72 1013.7
20260502052052 10 0 0.0 1.6 0.00 0.00 0.00 72 1013.7
20260502051552 10 0 0.0 1.6 0.00 0.00 0.00 71 1013.7
20260502051052 10 0 0.0 1.6 0.00 0.00 0.00 71 1013.7
20260502050551 10 0 0.0 1.6 0.00 0.00 0.00 70 1013.8
20260502050052 10 0 0.0 1.6 0.00 0.00 0.00 69 1013.7
20260502045551 10 0 0.0 1.6 0.00 0.00 0.00 69 1013.8
20260502045052 10 0 0.0 4.8 0.00 0.00 0.00 70 1013.8
20260502044612 10 0 0.0 4.8 0.00 0.00 0.00 69 1013.8
20260502044051 10 139 1.6 3.2 0.00 0.00 0.00 70 1013.8
20260502043552 10 0 0.0 1.6 0.00 0.00 0.00 71 1013.7
20260502043051 10 0 0.0 1.6 0.00 0.00 0.00 70 1013.7
20260502042613 10 0 0.0 3.2 0.00 0.00 0.00 70 1013.6
20260502042052 10 160 0.0 3.2 0.00 0.00 0.00 71 1013.7
20260502041552 10 0 0.0 3.2 0.00 0.00 0.00 70 1013.7
20260502041052 10 0 0.0 3.2 0.00 0.00 0.00 70 1013.7
20260502040551 10 0 0.0 3.2 0.00 0.00 0.00 70 1013.6
20260502040051 10 185 0.0 1.6 0.00 0.00 0.00 71 1013.8
20260502035550 10 158 0.0 3.2 0.00 0.00 0.00 70 1013.8
20260502035050 10 0 0.0 3.2 0.00 0.00 0.00 70 1013.6
20260502034550 10 0 0.0 3.2 0.00 0.00 0.00 70 1013.8
20260502034050 10 233 0.0 3.2 0.00 0.00 0.00 71 1013.8
20260502033550 10 0 0.0 3.2 0.00 0.00 0.00 70 1013.9
20260502033050 10 0 0.0 3.2 0.00 0.00 0.00 71 1013.9
20260502032550 10 0 0.0 3.2 0.00 0.00 0.00 71 1013.8
20260502032049 10 207 0.0 3.2 0.00 0.00 0.00 70 1013.9
20260502031550 10 173 0.0 1.6 0.00 0.00 0.00 70 1013.9
20260502031050 10 0 0.0 8.0 0.00 0.00 0.00 70 1013.9
20260502030549 10 0 0.0 9.7 0.00 0.00 0.00 68 1013.9
20260502030050 10 0 0.0 9.7 0.00 0.00 0.00 67 1013.8
20260502025611 10 314 3.2 4.8 0.00 0.00 0.00 68 1013.8
20260502025050 10 134 0.0 4.8 0.00 0.00 0.00 66 1013.9
20260502024611 10 256 1.6 4.8 0.00 0.00 0.00 66 1013.9
20260502024050 11 344 0.0 4.8 0.00 0.00 0.00 66 1013.8
20260502023550 11 0 0.0 4.8 0.00 0.00 0.00 66 1013.8
20260502023050 11 338 1.6 4.8 0.00 0.00 0.00 64 1013.8
20260502022550 11 97 1.6 4.8 0.00 0.00 0.00 65 1013.8
20260502022050 11 0 0.0 4.8 0.00 0.00 0.00 65 1013.8
20260502021550 11 0 0.0 9.7 0.00 0.00 0.00 64 1013.8
20260502021050 11 0 0.0 9.7 0.00 0.00 0.00 63 1013.8
20260502020550 11 0 0.0 6.4 0.00 0.00 0.00 63 1013.9
20260502020050 11 127 1.6 8.0 0.00 0.00 0.00 62 1013.9
20260502015611 11 0 0.0 8.0 0.00 0.00 0.00 62 1014.0
20260502015050 11 0 0.0 3.2 0.00 0.00 0.00 62 1013.9
20260502014611 11 193 1.6 3.2 0.00 0.00 0.00 61 1013.9
20260502014050 11 173 1.6 4.8 0.00 0.00 0.00 61 1013.8
20260502013550 11 174 1.6 4.8 0.00 0.00 0.00 62 1013.8
20260502013050 11 162 0.0 6.4 0.00 0.00 0.00 59 1013.8
20260502012611 11 138 3.2 6.4 0.00 0.00 0.00 59 1013.7
20260502012050 11 97 1.6 4.8 0.00 0.00 0.00 58 1013.7
20260502011550 11 0 0.0 4.8 0.00 0.00 0.00 58 1013.6
20260502011050 11 0 0.0 3.2 0.00 0.00 0.00 58 1013.5
20260502010551 11 0 0.0 4.8 0.00 0.00 0.00 56 1013.5
20260502010050 11 0 0.0 4.8 0.00 0.00 0.00 54 1013.4
20260502005550 11 203 1.6 3.2 0.00 0.00 0.00 53 1013.3
20260502005050 11 214 0.0 4.8 0.00 0.00 0.00 50 1013.3
20260502004611 12 205 0.0 4.8 0.00 0.00 0.00 52 1013.2
20260502004111 12 259 0.0 4.8 0.00 0.00 0.00 51 1013.1
20260502003550 12 0 0.0 4.8 0.00 0.00 0.00 54 1013.1
20260502003050 12 0 0.0 4.8 0.00 0.00 0.00 52 1013.0
20260502002550 12 200 0.0 3.2 0.00 0.00 0.00 53 1013.1
20260502002050 12 0 0.0 1.6 0.00 0.00 0.00 54 1012.9
20260502001551 12 0 0.0 1.6 0.00 0.00 0.00 53 1012.9
20260502001050 12 0 0.0 3.2 0.00 0.00 0.00 52 1012.8
20260502000550 12 0 0.0 3.2 0.00 0.00 0.00 51 1012.7
20260502000050 12 114 1.6 3.2 0.00 0.00 0.00 48 1012.6
20260501235550 12 115 1.6 1.6 0.00 0.00 0.00 52 1012.4
20260501235050 12 115 1.6 1.6 0.00 0.00 0.00 50 1012.3
20260501234550 12 115 1.6 1.6 0.00 0.00 0.00 50 1012.2
20260501234050 13 115 0.0 1.6 0.00 0.00 0.00 49 1012.2
20260501233550 13 115 1.6 3.2 0.00 0.00 0.00 44 1012.2
20260501233050 13 115 1.6 3.2 0.00 0.00 0.00 43 1012.2
20260501232550 14 115 0.0 1.6 0.00 0.00 0.00 43 1012.1
20260501232050 14 115 1.6 3.2 0.00 0.00 0.00 39 1012.1
20260501231550 15 0 0.0 3.2 0.00 0.00 0.00 40 1012.0
20260501231050 15 115 1.6 3.2 0.00 0.00 0.00 39 1012.0
20260501230550 15 0 0.0 6.4 0.00 0.00 0.00 38 1012.0
20260501230050 15 0 0.0 6.4 0.00 0.00 0.00 36 1012.0
20260501225550 15 62 0.0 6.4 0.00 0.00 0.00 37 1012.0
20260501225111 15 129 1.6 8.0 0.00 0.00 0.00 37 1011.8
20260501224550 15 124 3.2 9.7 0.00 0.00 0.00 40 1011.7
20260501224050 15 153 1.6 9.7 0.00 0.00 0.00 36 1011.6
20260501223550 16 160 0.0 6.4 0.00 0.00 0.00 36 1011.7
20260501223050 15 0 0.0 6.4 0.00 0.00 0.00 36 1011.7
20260501222550 16 124 1.6 4.8 0.00 0.00 0.00 37 1011.8
20260501222050 16 138 1.6 6.4 0.00 0.00 0.00 37 1011.7
20260501221550 16 0 0.0 6.4 0.00 0.00 0.00 37 1011.7
20260501221050 16 0 0.0 8.0 0.00 0.00 0.00 36 1011.8
20260501220550 16 177 1.6 9.7 0.00 0.00 0.00 36 1011.8
20260501220050 16 120 3.2 9.7 0.00 0.00 0.00 35 1011.9
20260501215550 16 87 3.2 6.4 0.00 0.00 0.00 37 1012.0
20260501215050 16 110 3.2 8.0 0.00 0.00 0.00 36 1012.0
20260501214611 16 123 6.4 8.0 0.00 0.00 0.00 38 1012.0
20260501214050 16 137 0.0 9.7 0.00 0.00 0.00 36 1011.9
20260501213550 16 76 3.2 9.7 0.00 0.00 0.00 36 1011.9
20260501213050 16 136 1.6 9.7 0.00 0.00 0.00 38 1012.0
20260501212550 16 85 3.2 8.0 0.00 0.00 0.00 36 1011.8
20260501212050 16 80 1.6 8.0 0.00 0.00 0.00 39 1011.8
20260501211550 16 111 1.6 8.0 0.00 0.00 0.00 36 1011.8
20260501211111 16 174 3.2 8.0 0.00 0.00 0.00 37 1011.8
20260501210550 16 122 1.6 8.0 0.00 0.00 0.00 36 1011.7
20260501210050 16 149 0.0 8.0 0.00 0.00 0.00 36 1011.8
20260501205550 16 93 3.2 12.9 0.00 0.00 0.00 36 1011.9
20260501205051 16 146 3.2 12.9 0.00 0.00 0.00 37 1012.0
20260501204550 16 156 1.6 8.0 0.00 0.00 0.00 34 1011.9
20260501204050 16 82 4.8 8.0 0.00 0.00 0.00 35 1011.9
20260501203550 16 141 3.2 14.5 0.00 0.00 0.00 37 1012.0
20260501203050 16 116 4.8 14.5 0.00 0.00 0.00 35 1011.9
20260501202550 16 117 0.0 9.7 0.00 0.00 0.00 36 1011.8
20260501202111 16 153 1.6 9.7 0.00 0.00 0.00 37 1011.7
20260501201550 16 63 1.6 9.7 0.00 0.00 0.00 35 1011.6
20260501201050 16 77 1.6 8.0 0.00 0.00 0.00 36 1011.8
20260501200550 16 93 3.2 9.7 0.00 0.00 0.00 35 1011.8
20260501200050 16 143 1.6 9.7 0.00 0.00 0.00 36 1011.8
20260501195611 16 147 6.4 9.7 0.00 0.00 0.00 34 1011.6
20260501195050 16 189 4.8 9.7 0.00 0.00 0.00 35 1011.7
20260501194550 16 136 1.6 9.7 0.00 0.00 0.00 35 1011.8
20260501194111 16 129 3.2 9.7 0.00 0.00 0.00 36 1011.9
20260501193550 16 68 4.8 9.7 0.00 0.00 0.00 37 1011.8
20260501193111 16 118 3.2 12.9 0.00 0.00 0.00 36 1011.7
20260501192550 16 115 3.2 12.9 0.00 0.00 0.00 36 1011.9
20260501192050 16 156 1.6 9.7 0.00 0.00 0.00 40 1012.0
20260501191550 16 60 3.2 9.7 0.00 0.00 0.00 36 1012.0
20260501191050 16 170 4.8 8.0 0.00 0.00 0.00 34 1012.1
20260501190551 16 0 0.0 12.9 0.00 0.00 0.00 34 1012.2
20260501190050 16 137 1.6 12.9 0.00 0.00 0.00 38 1012.3
20260501185550 16 339 6.4 12.9 0.00 0.00 0.00 36 1012.3
20260501185050 15 177 6.4 12.9 0.00 0.00 0.00 37 1012.2
20260501184550 16 161 3.2 11.3 0.00 0.00 0.00 35 1012.3
20260501184050 16 124 4.8 11.3 0.00 0.00 0.00 38 1012.3
20260501183611 16 128 9.7 9.7 0.00 0.00 0.00 37 1012.2
20260501183050 15 143 3.2 6.4 0.00 0.00 0.00 36 1012.3
20260501182551 15 115 0.0 9.7 0.00 0.00 0.00 36 1012.4
20260501182112 15 150 3.2 9.7 0.00 0.00 0.00 39 1012.3
20260501181550 15 191 3.2 9.7 0.00 0.00 0.00 38 1012.5
20260501181051 15 165 0.0 9.7 0.00 0.00 0.00 34 1012.5
20260501180551 15 136 1.6 11.3 0.00 0.00 0.00 39 1012.5
20260501180051 15 164 1.6 11.3 0.00 0.00 0.00 38 1012.5
20260501175550 14 316 0.0 11.3 0.00 0.00 0.00 43 1012.4
20260501175051 14 131 1.6 9.7 0.00 0.00 0.00 40 1012.5
20260501174612 15 145 1.6 9.7 0.00 0.00 0.00 39 1012.5
20260501174050 14 119 4.8 6.4 0.00 0.00 0.00 42 1012.5
20260501173550 14 22 1.6 8.0 0.00 0.00 0.00 43 1012.6
20260501173051 14 146 1.6 12.9 0.00 0.00 0.00 42 1012.6
20260501172550 14 150 0.0 19.3 0.00 0.00 0.00 43 1012.7
20260501172050 13 165 4.8 19.3 0.00 0.00 0.00 44 1012.8
20260501171550 14 159 3.2 14.5 0.00 0.00 0.00 40 1012.7